Conditions Actuelle
Brumeux



Pression
30.5 (inHG) - 1032.92 (mb)
Visibilité

3.0 (km) - 1.9 (miles)
   Température
9  °C
Température
9  °C
Point de Rosée
100  %
 Humidité
   Vitesse du Vent
16  km/h
9  kts
10  mph
4.5  m/s
   Direction du Vent
N
45°
E
90°
135°
S
180°
225°
O
270°
315°
 20°

Nord Nord
Est
   Données D'Aéroport
LFBU
Angoulême-Brie-Champniers Airport
Metar :LFBU 260900Z AUTO 02009KT 2800 BR ////// 09/09 Q1033
26-02-2021 10:00
   Informations de métar brut
Le METAR brut est le format le plus courant au monde pour la transmission de données météorologiques d'observation. Il est hautement standardisé par l’Organisation de l’aviation civile internationale (OACI), ce qui lui permet d’être compris dans la plupart des pays du monde.
   API Information
Données fournies par
https://www.checkwx.com/weather/LFBU

Météo aéronautique fournissant des rapports météorologiques METAR, TAF, AIRMET, SIGMET et OUTLOOK
   © Info
CSS/SVG/PHP les scripts ont été développés pa weather34.com pour une utilisation dans le modèle weather34 © 2015-2021

Informations sur le guide fournies par Metar-Wikipedia